When you browse on this site, cookies collect data to enhance your experience and personalize the content and advertising you see.
Visit our Privacy Policy to learn more. By continuing to use the site, you agree to this use of cookies and data.
  • In Sweden
  • List of Countries
  • For 7 days
  • Water Temperature
  • Weather Map
  • Weather Widgets
  • user-avatar
    Login

    Hourly Weather Komádi

    Today, 18 November, Monday

    Time Temperature Precipitation Wind Pressure Humidity
    00:00 +13°C° 0 mm 2 mps 752 mmHg 64%
    01:00 +12°C° 0 mm 2 mps 752 mmHg 63%
    02:00 +12°C° 0 mm 2 mps 752 mmHg 63%
    03:00 +12°C° 0 mm 2 mps 752 mmHg 64%
    04:00 +12°C° 0 mm 2 mps 751 mmHg 64%
    05:00 +12°C° 0 mm 2 mps 751 mmHg 65%
    06:00 +12°C° 0 mm 2 mps 752 mmHg 65%
    07:00 +12°C° 0 mm 2 mps 752 mmHg 63%
    08:00 +12°C° 0 mm 3 mps 752 mmHg 62%
    09:00 +14°C° 0 mm 4 mps 752 mmHg 60%
    10:00 +15°C° 0 mm 5 mps 753 mmHg 59%
    11:00 +15°C° 0 mm 5 mps 753 mmHg 62%
    12:00 +15°C° 0 mm 5 mps 753 mmHg 65%
    13:00 +16°C° 0 mm 5 mps 754 mmHg 67%
    14:00 +15°C° 0.1 mm 5 mps 754 mmHg 68%
    15:00 +15°C° 0.1 mm 4 mps 755 mmHg 70%
    16:00 +14°C° 0.1 mm 3 mps 755 mmHg 71%
    17:00 +13°C° 0 mm 3 mps 755 mmHg 72%
    18:00 +13°C° 0 mm 2 mps 756 mmHg 74%
    19:00 +12°C° 0 mm 2 mps 756 mmHg 75%
    20:00 +12°C° 0 mm 2 mps 757 mmHg 73%
    21:00 +11°C° 0 mm 1 mps 757 mmHg 71%
    22:00 +11°C° 0 mm 1 mps 758 mmHg 69%
    23:00 +11°C° 0 mm 1 mps 758 mmHg 70%

    Tomorrow, 19 November, Tuesday

    Time Temperature Precipitation Wind Pressure Humidity
    00:00 +11°C° 0 mm 1 mps 758 mmHg 71%
    01:00 +10°C° 0 mm 2 mps 759 mmHg 73%
    02:00 +9°C° 0 mm 2 mps 758 mmHg 76%
    03:00 +9°C° 0 mm 2 mps 758 mmHg 80%
    04:00 +9°C° 0 mm 2 mps 758 mmHg 83%
    05:00 +9°C° 0 mm 2 mps 758 mmHg 84%
    06:00 +9°C° 0 mm 2 mps 758 mmHg 85%
    07:00 +9°C° 0 mm 2 mps 758 mmHg 87%
    08:00 +10°C° 0 mm 2 mps 759 mmHg 80%
    09:00 +13°C° 0 mm 2 mps 759 mmHg 73%
    10:00 +15°C° 0 mm 2 mps 759 mmHg 66%
    11:00 +15°C° 0 mm 2 mps 758 mmHg 62%
    12:00 +16°C° 0 mm 2 mps 758 mmHg 57%
    13:00 +17°C° 0 mm 2 mps 757 mmHg 53%
    14:00 +16°C° 0 mm 2 mps 757 mmHg 56%
    15:00 +15°C° 0 mm 2 mps 757 mmHg 59%
    16:00 +15°C° 0 mm 2 mps 757 mmHg 62%
    17:00 +14°C° 0 mm 2 mps 757 mmHg 63%
    18:00 +14°C° 0 mm 2 mps 757 mmHg 63%
    19:00 +13°C° 0 mm 1 mps 757 mmHg 64%
    20:00 +13°C° 0 mm 1 mps 757 mmHg 65%
    21:00 +13°C° 0 mm 1 mps 757 mmHg 66%
    22:00 +13°C° 0 mm 1 mps 757 mmHg 67%
    23:00 +12°C° 0 mm 1 mps 757 mmHg 68%

    Day after tomorrow, 20 November, Wednesday

    Time Temperature Precipitation Wind Pressure Humidity
    00:00 +12°C° 0 mm 1 mps 756 mmHg 70%
    01:00 +12°C° 0 mm 2 mps 756 mmHg 71%
    02:00 +12°C° 0 mm 2 mps 756 mmHg 72%
    03:00 +12°C° 0 mm 2 mps 755 mmHg 72%
    04:00 +10°C° 0 mm 2 mps 755 mmHg 73%
    05:00 +10°C° 0 mm 2 mps 755 mmHg 73%
    06:00 +10°C° 0 mm 2 mps 754 mmHg 72%
    07:00 +11°C° 0 mm 1 mps 754 mmHg 72%
    08:00 +12°C° 0 mm 1 mps 754 mmHg 68%
    09:00 +13°C° 0 mm 2 mps 754 mmHg 63%
    10:00 +15°C° 0 mm 2 mps 753 mmHg 58%
    11:00 +15°C° 0 mm 2 mps 753 mmHg 55%
    12:00 +16°C° 0 mm 2 mps 753 mmHg 52%
    13:00 +17°C° 0 mm 2 mps 753 mmHg 48%
    14:00 +16°C° 0.1 mm 3 mps 752 mmHg 57%
    15:00 +14°C° 0.1 mm 4 mps 752 mmHg 66%
    16:00 +13°C° 0.1 mm 5 mps 752 mmHg 75%
    17:00 +13°C° 0.4 mm 5 mps 752 mmHg 78%
    18:00 +13°C° 0.4 mm 4 mps 753 mmHg 81%
    19:00 +12°C° 0.4 mm 4 mps 753 mmHg 84%
    20:00 +12°C° 0.2 mm 4 mps 753 mmHg 84%
    21:00 +12°C° 0.2 mm 3 mps 753 mmHg 83%
    22:00 +12°C° 0.2 mm 3 mps 754 mmHg 82%
    23:00 +12°C° 0.1 mm 3 mps 754 mmHg 83%

    21 November, Thursday

    Time Temperature Precipitation Wind Pressure Humidity
    00:00 +12°C° 0.1 mm 3 mps 754 mmHg 83%
    01:00 +12°C° 0.1 mm 3 mps 754 mmHg 84%
    02:00 +11°C° 0 mm 3 mps 754 mmHg 85%
    03:00 +12°C° 0 mm 2 mps 754 mmHg 86%
    04:00 +10°C° 0 mm 2 mps 754 mmHg 87%
    05:00 +10°C° 0 mm 2 mps 754 mmHg 86%
    06:00 +10°C° 0 mm 2 mps 755 mmHg 86%
    07:00 +9°C° 0 mm 3 mps 755 mmHg 86%
    08:00 +11°C° 0 mm 3 mps 755 mmHg 80%
    09:00 +12°C° 0 mm 3 mps 755 mmHg 74%
    10:00 +13°C° 0 mm 4 mps 755 mmHg 67%
    11:00 +14°C° 0 mm 4 mps 755 mmHg 65%
    12:00 +15°C° 0 mm 4 mps 755 mmHg 62%
    13:00 +15°C° 0 mm 4 mps 755 mmHg 59%
    14:00 +14°C° 0 mm 3 mps 755 mmHg 63%
    15:00 +15°C° 0 mm 2 mps 755 mmHg 67%
    16:00 +14°C° 0 mm 1 mps 755 mmHg 71%
    17:00 +13°C° 0.2 mm 1 mps 755 mmHg 73%
    18:00 +13°C° 0.2 mm 1 mps 755 mmHg 75%
    19:00 +13°C° 0.2 mm 2 mps 756 mmHg 77%
    20:00 +12°C° 0.1 mm 2 mps 756 mmHg 77%
    21:00 +12°C° 0.1 mm 1 mps 756 mmHg 77%
    22:00 +12°C° 0.1 mm 1 mps 756 mmHg 77%
    23:00 +12°C° 0 mm 1 mps 756 mmHg 77%

    22 November, Friday

    Time Temperature Precipitation Wind Pressure Humidity
    00:00 +12°C° 0 mm 1 mps 756 mmHg 77%
    01:00 +11°C° 0 mm 1 mps 756 mmHg 77%
    02:00 +10°C° 0 mm 2 mps 756 mmHg 77%
    03:00 +10°C° 0 mm 2 mps 756 mmHg 77%
    04:00 +10°C° 0 mm 2 mps 756 mmHg 77%
    05:00 +10°C° 0 mm 2 mps 756 mmHg 76%
    06:00 +10°C° 0 mm 2 mps 756 mmHg 75%
    07:00 +10°C° 0 mm 2 mps 756 mmHg 75%
    08:00 +12°C° 0 mm 2 mps 756 mmHg 71%
    09:00 +13°C° 0 mm 2 mps 756 mmHg 68%
    10:00 +14°C° 0 mm 2 mps 756 mmHg 65%
    11:00 +14°C° 0 mm 1 mps 756 mmHg 64%
    12:00 +14°C° 0 mm 1 mps 756 mmHg 63%
    13:00 +15°C° 0 mm 1 mps 755 mmHg 63%
    14:00 +14°C° 0 mm 1 mps 755 mmHg 67%
    15:00 +13°C° 0 mm 1 mps 755 mmHg 72%
    16:00 +13°C° 0 mm 1 mps 755 mmHg 76%
    17:00 +12°C° 0.5 mm 1 mps 755 mmHg 80%
    18:00 +12°C° 0.5 mm 1 mps 755 mmHg 84%
    19:00 +11°C° 0.5 mm 0 mps 755 mmHg 88%
    20:00 +11°C° 0.9 mm 1 mps 755 mmHg 90%
    21:00 +11°C° 0.9 mm 1 mps 755 mmHg 92%
    22:00 +11°C° 0.9 mm 1 mps 755 mmHg 94%
    23:00 +11°C° 0.3 mm 1 mps 755 mmHg 94%

    23 November, Saturday

    Time Temperature Precipitation Wind Pressure Humidity
    00:00 +11°C° 0.3 mm 1 mps 755 mmHg 94%
    01:00 +11°C° 0.3 mm 1 mps 755 mmHg 93%
    02:00 +11°C° 0.1 mm 1 mps 755 mmHg 93%
    03:00 +11°C° 0.1 mm 1 mps 755 mmHg 92%
    04:00 +11°C° 0.1 mm 1 mps 754 mmHg 91%
    05:00 +11°C° 0 mm 1 mps 754 mmHg 90%
    06:00 +10°C° 0 mm 1 mps 754 mmHg 90%
    07:00 +10°C° 0 mm 1 mps 754 mmHg 89%
    08:00 +10°C° 0 mm 2 mps 754 mmHg 83%
    09:00 +10°C° 0 mm 2 mps 754 mmHg 77%
    10:00 +12°C° 0 mm 2 mps 755 mmHg 71%
    11:00 +12°C° 0 mm 2 mps 754 mmHg 68%
    12:00 +12°C° 0 mm 3 mps 754 mmHg 64%
    13:00 +12°C° 0 mm 3 mps 753 mmHg 61%
    14:00 +13°C° 0 mm 2 mps 753 mmHg 64%
    15:00 +12°C° 0 mm 2 mps 753 mmHg 67%
    16:00 +12°C° 0 mm 2 mps 753 mmHg 69%
    17:00 +10°C° 0 mm 2 mps 753 mmHg 71%
    18:00 +10°C° 0 mm 2 mps 753 mmHg 72%
    19:00 +9°C° 0 mm 2 mps 753 mmHg 74%
    20:00 +9°C° 0 mm 2 mps 753 mmHg 75%
    21:00 +9°C° 0 mm 2 mps 753 mmHg 76%
    22:00 +8°C° 0 mm 2 mps 753 mmHg 78%
    23:00 +8°C° 0 mm 2 mps 752 mmHg 78%
    Show more